Regional Weather Roundup
Issued by NWS

Home | Current Version | Previous Version | Text Only | Print | Product List | Glossary Off
Versions: 1 2 3 4 5 6 7 8 9 10 11 12 13 14 15 16 17 18 19 20 21 22 23 24 25 26 27 28 29 30 31 32 33 34 35 36 37 38 39 40 41 42 43 44 45 46 47 48 49 50

000
ASUS43 KMKX 212011
RWRWI

WISCONSIN REGIONAL WEATHER ROUNDUP
NATIONAL WEATHER SERVICE MILWAUKEE/SULLIVAN WI
300 PM CDT TUE OCT 21 2014

NOTE: "FAIR" INDICATES FEW OR NO CLOUDS BELOW 12,000 FEET WITH NO
SIGNIFICANT WEATHER AND/OR OBSTRUCTIONS TO VISIBILITY.

WIZ001-002-006>008-014>016-023>028-212100-
NORTHWEST WISCONSIN

CITY           SKY/WX    TMP DP  RH WIND       PRES   REMARKS
SUPERIOR ARPT  MOSUNNY   48  38  68 NE9G17    30.22F
ASHLAND        MOSUNNY   48  36  63 N13       30.25F
HAYWARD        SUNNY     50  35  56 NE5       30.21F
SIREN          SUNNY     56  35  44 SE9       30.18F
CUMBERLAND     SUNNY     50  34  53 SE8       30.20S
RICE LAKE      SUNNY     53  36  52 E8        30.21S
CHETEK         SUNNY     53  37  54 E8        30.20S
LADYSMITH      SUNNY     55  36  49 SE5       30.22S
EAU CLAIRE     SUNNY     54  35  48 SE8       30.19F
MENOMONIE      SUNNY     55  37  50 NE3       30.20S
NEW RICHMOND   SUNNY     55  38  53 SE7       30.18S
OSCEOLA        SUNNY     56  40  55 E7        30.20F
$$

WIZ003>005-009-010-017-018-212100-
NORTH CENTRAL WISCONSIN

CITY           SKY/WX    TMP DP  RH WIND       PRES   REMARKS
MANITOWISH WTR PTSUNNY   44  35  68 CALM      30.23S
ARBOR VITAE    MOSUNNY   45  35  67 SE5       30.22F
WOODRUFF       MOSUNNY   45  35  67 SE5       30.22F
RHINELANDER    SUNNY     47  33  58 CALM      30.23F
EAGLE RIVER    SUNNY     45  31  59 CALM      30.22F
LAND O LAKES   SUNNY     48  33  55 CALM      30.23F
PHILLIPS       SUNNY     47  35  64 E5        30.22S
TOMAHAWK       SUNNY     48  34  58 CALM      30.23F
MEDFORD        SUNNY     48  36  63 SE7       30.22S
MERRILL        SUNNY     50  35  56 S3        30.22F
$$

WIZ029-030-035-036-043>047-212100-
CENTRAL WISCONSIN

CITY           SKY/WX    TMP DP  RH WIND       PRES   REMARKS
WAUSAU         SUNNY     50  35  56 SW6       30.21F
MOSINEE        NOT AVBL
MARSHFIELD     SUNNY     51  37  58 E6        30.22S
STEVENS POINT  SUNNY     49  34  57 SE7       30.22F
WAUPACA        SUNNY     54  35  48 SE3       30.23S HAZE
WAUTOMA        CLOUDY    51  36  56 CALM      30.23F
WISC RAPIDS    SUNNY     50  35  56 CALM      30.24S
CAMP DOUGLAS   MOSUNNY   52  39  62 VRB3      30.22F
$$

WIZ011>013-019>022-031-037>040-048>050-212100-
NORTHEAST WISCONSIN

CITY           SKY/WX    TMP DP  RH WIND       PRES   REMARKS
ANTIGO         SUNNY     49  35  58 CALM      30.22S
SHAWANO        SUNNY     55  33  43 E5        30.23S
OCONTO         SUNNY     50  35  55 SE5       30.22S
STURGEON BAY   SUNNY     48  28  46 N10       30.23S
GREEN BAY      SUNNY     51  36  56 NE9       30.23S
MANITOWOC      SUNNY     50  39  66 NE8       30.22R
APPLETON       MOSUNNY   50  34  53 NE7       30.22F
CLINTONVILLE   SUNNY     52  32  46 N7        30.23S
OSHKOSH        SUNNY     49  36  61 NE9       30.23R
$$

WIZ032>034-041-042-053>061-212100-
SOUTHWEST WISCONSIN

CITY           SKY/WX    TMP DP  RH WIND       PRES   REMARKS
LA CROSSE      SUNNY     57  38  48 CALM      30.19F
SPARTA         SUNNY     55  35  46 E6        30.20F
VIROQUA        SUNNY     55  36  47 E5        30.19S
BOSCOBEL       SUNNY     57  37  47 VRB7      30.20F
PRAIRIE DU CHI SUNNY     56  34  43 E6        30.18S
PLATTEVILLE    SUNNY     55  37  52 NE9       30.20S
$$

WIZ056-057-062-063-064-067-068-212100-
SOUTH CENTRAL WISCONSIN

CITY           SKY/WX    TMP DP  RH WIND       PRES   REMARKS
REEDSBURG      PTSUNNY   49  37  64 SE6       30.22S
BARABOO/DELLS  PTSUNNY   49  35  58 NE9       30.22F
LONE ROCK      SUNNY     56  37  49 E7        30.21F
MINERAL POINT  SUNNY     54  36  50 E6        30.20S
MADISON        CLOUDY    48  37  65 NE8       30.23S
MIDDLETON      CLOUDY    49  37  62 N7        30.23S
WATERTOWN      CLOUDY    46  38  72 N6        30.22S
MONROE         CLOUDY    50  37  62 N9        30.20F HAZE
JANESVILLE     CLOUDY    52  37  58 N13       30.21S
$$

WIZ051-052-058>065-066-070>072-212100-
SOUTHEAST WISCONSIN

CITY           SKY/WX    TMP DP  RH WIND       PRES   REMARKS
MILWAUKEE      CLOUDY    48  37  65 N12G20    30.21S
WAUKESHA       CLOUDY    46  36  66 N10       30.22S
MILWAUKEE/TIMM CLOUDY    48  36  61 N10       30.22S
RACINE         CLOUDY    49  39  68 N14       30.22R
BURLINGTON     CLOUDY    47  36  66 N8        30.21R
KENOSHA        CLOUDY    48  39  71 N13       30.21R
FOND DU LAC    MOSUNNY   50  36  58 NE9       30.23S
SHEBOYGAN      SUNNY     50  38  63 NE17      30.22R
WEST BEND      PTSUNNY   50  34  53 N8        30.20S
JUNEAU         CLOUDY    45  37  72 N9        30.24R
$$

LSZ147-162-212100-
LAKE SUPERIOR

STATION/POSITION TIME  TEMP    WIND        PRES    WAVE
                       AIR SEA DIR/SP/G            HT/PER
                 (UTC) (F)     (DEG/KT/KT) (MB)    (FT/S)
W MID LAKE BUOY  1950   42 46   90/ 10/ 12 1025.6F   2/ 6
DEVILS ISLAND    2000   43      80/ 13/ 14 1025.5F
PORT WING        1940   48      60/  8/  9 1024.4F
SAXON HARBOR     1900   45      30/  6/  7 1024.4F
$$

LMZ867-665-643>646-212100-
LAKE MICHIGAN

STATION/POSITION TIME  TEMP    WIND        PRES    WAVE
                       AIR SEA DIR/SP/G            HT/PER
                 (UTC) (F)     (DEG/KT/KT) (MB)    (FT/S)
CHAMBERS ISLAND  1900   48      20/  9/ 12 1023.7S
N MID LAKE BUOY  1950   46 51   30/ 14/ 16 1023.5F   2/ 4
NORTHPORT PIER   1900   47     340/ 11/ 13 1023.4F
SISTER BAY       1742           20/ 13/ 20   N/A
KEWAUNEE LAKESHO 1900   47      40/ 10/ 12 1022.3F
SHEBOYGAN LAKESH 2000   47 50   20/ 17/ 19 1023.9R
PORT WASHINGTON  1940   49      40/ 13/ 17 1023.4F
ATWATER BUOY     2000   49      10/ 16/ 19 1023.7R
MILWAUKEE LAKESH 1900   48     360/ 14/ 17   N/A
S MID LAKE BUOY  1950   50 54  350/ 16/ 19 1021.9R   5/ 7
KENOSHA   LAKESH 2000   48     360/ 17/ 23 1022.4S
$$

TC  - TEMPERATURE IN CELSIUS
VSB - VISIBILITY IN STATUTE MILES
WCI - WIND CHILL INDEX
HX  - HEAT INDEX




USA.gov is the U.S. government's official web portal to all federal, state and local government web resources and services.